Stations météo

réclame
Mon MeteoGroup
Lichtenhain-Mittelndorf, Allemagne (10591): Température de l'air & dewpoint: 03.07.2020 22:00:00 - 09.07.2020 22:00:00 (CEST)Lichtenhain-Mittelndorf, Allemagne (10591): Température de l'air 5cm & Température de l'air -5cm: 03.07.2020 22:00:00 - 09.07.2020 22:00:00 (CEST)Lichtenhain-Mittelndorf, Allemagne (10591): Température de l'air -20cm & Température de l'air -100cm: 03.07.2020 22:00:00 - 09.07.2020 22:00:00 (CEST)Lichtenhain-Mittelndorf, Allemagne (10591): Vitesse du vent & gusts: 03.07.2020 22:00:00 - 09.07.2020 22:00:00 (CEST)Lichtenhain-Mittelndorf, Allemagne (10591): Direction du vent: 03.07.2020 22:00:00 - 09.07.2020 22:00:00 (CEST)Lichtenhain-Mittelndorf, Allemagne (10591): reduced air pressure: 03.07.2020 22:00:00 - 09.07.2020 22:00:00 (CEST)Lichtenhain-Mittelndorf, Allemagne (10591): visibility: 03.07.2020 22:00:00 - 09.07.2020 22:00:00 (CEST)Lichtenhain-Mittelndorf, Allemagne (10591): Ensoleillement: 03.07.2020 22:00:00 - 09.07.2020 22:00:00 (CEST)Lichtenhain-Mittelndorf, Allemagne (10591): Quantités de précipitations: 03.07.2020 22:00:00 - 09.07.2020 22:00:00 (CEST)
Date & Time tt [°C] td [°C] tt 5cm [°C] tt -5cm [°C] tt -20cm [°C] tt -100cm [°C] ff [km/h] ff [knt] fx [km/h] fx [knt] dd ppp [hPa] vv [km] sd [min] rr [mm]
09.07.2020 22:00:00 - - - - - - - - - - - - - - -
09.07.2020 21:00:00 20,4 16,1 19,8 19,9 18,9 17,3 12 6 17 9 S 1011,9 32 0 0,0
09.07.2020 20:00:00 20,7 16,5 20,4 20,6 18,7 17,3 12 7 21 11 SSE 1011,9 31 6 0,0
09.07.2020 19:00:00 21,1 16,4 21,3 21,2 18,4 17,3 13 7 27 15 S 1012,0 30 21 0,0
09.07.2020 18:00:00 20,4 16,6 21,5 20,8 18,1 17,3 16 8 30 16 S 1012,6 25 10 0,0
09.07.2020 17:00:00 19,5 15,7 20,4 20,9 17,8 17,3 17 9 29 16 S 1013,6 21 8 0,0
09.07.2020 16:00:00 19,5 15,5 22,0 20,3 17,5 17,4 15 8 26 14 S 1014,1 21 2 0,0
09.07.2020 15:00:00 17,9 14,4 19,4 19,2 17,3 17,4 13 7 29 15 S 1014,8 21 0 0,0
09.07.2020 14:00:00 17,0 14,1 17,7 18,2 17,1 17,4 19 10 35 19 S 1015,2 21 0 0,0
09.07.2020 13:00:00 16,1 13,7 17,1 18,0 16,9 17,4 20 11 34 19 S 1015,7 13 0 0,0
09.07.2020 12:00:00 15,9 12,8 17,0 18,7 16,5 17,4 23 12 35 19 S 1016,1 19 3 0,0
09.07.2020 11:00:00 15,9 13,0 18,3 18,2 16,2 17,4 20 11 29 16 S 1016,2 22 3 0,0
09.07.2020 10:00:00 14,4 12,4 15,7 16,8 16,0 17,4 19 10 26 14 S 1017,1 18 0 0,0
09.07.2020 09:00:00 13,5 11,8 14,7 16,4 15,8 17,4 15 8 23 12 S 1017,1 19 4 0,0
09.07.2020 08:00:00 12,8 11,7 13,2 14,4 15,7 17,4 6 3 10 5 SE 1017,4 18 0 0,0
09.07.2020 07:00:00 12,1 11,2 11,9 13,4 15,8 17,4 5 3 14 7 E 1017,5 14 0 0,0
09.07.2020 06:00:00 10,9 10,4 10,6 12,4 16,0 17,5 5 3 13 7 E 1018,0 8 0 0,0
09.07.2020 05:00:00 10,6 10,2 9,8 12,3 16,3 17,5 8 4 12 6 E 1017,9 12 0 0,0
09.07.2020 04:00:00 10,7 10,4 10,5 12,6 16,5 17,5 5 3 11 6 ENE 1018,2 10 0 0,0
09.07.2020 03:00:00 9,6 9,3 9,7 12,5 16,9 17,5 4 2 9 5 ESE 1018,0 1,0 0 0,0
09.07.2020 02:00:00 10,2 9,9 8,8 12,3 17,2 17,5 4 2 13 7 ESE 1018,2 5 0 0,0
09.07.2020 01:00:00 10,4 10,1 9,8 12,9 17,6 17,5 5 3 8 4 SSE 1018,3 1,5 0 0,0
09.07.2020 00:00:00 11,7 11,2 10,4 13,5 18,0 17,5 2 1 9 5 ESE 1018,4 4,2 0 0,0
08.07.2020 23:00:00 12,6 11,5 10,8 14,4 18,4 17,5 4 2 6 3 S 1017,9 12 0 0,0
08.07.2020 22:00:00 13,0 11,7 11,3 15,6 18,7 17,5 5 3 13 7 S 1017,6 15 0 0,0
08.07.2020 21:00:00 13,9 11,6 14,0 16,5 18,8 17,5 8 5 17 9 NNW 1017,2 28 3 0,0
08.07.2020 20:00:00 15,0 11,1 15,3 17,8 18,9 17,5 13 7 24 13 WNW 1016,5 48 8 0,0
08.07.2020 19:00:00 15,4 12,2 16,7 18,3 18,9 17,5 6 3 13 7 WNW 1016,4 40 2 0,0
08.07.2020 18:00:00 14,5 12,8 15,3 18,3 18,9 17,5 8 4 26 14 WNW 1016,4 20 0 0,1
08.07.2020 17:00:00 14,3 12,7 14,7 19,0 18,8 17,5 9 5 23 12 SW 1016,3 22 0 0,0
08.07.2020 16:00:00 14,3 12,6 15,5 19,4 18,8 17,5 11 6 19 11 SSW 1016,1 12 0 0,2
08.07.2020 15:00:00 13,6 12,4 14,7 17,9 18,8 17,5 8 4 17 9 SSW 1016,3 7 0 0,3
08.07.2020 14:00:00 13,6 12,4 13,9 18,1 18,8 17,5 11 6 18 10 S 1016,3 6 0 0,8
08.07.2020 13:00:00 13,8 12,3 14,2 18,4 18,7 17,5 13 7 20 11 S 1016,2 9 0 0,5
08.07.2020 12:00:00 14,4 11,5 15,2 19,2 18,5 17,5 12 7 20 11 S 1015,9 13 0 0,1
08.07.2020 11:00:00 13,8 10,5 14,4 18,2 18,4 17,5 13 7 19 10 SSE 1016,1 21 0 0,0
08.07.2020 10:00:00 13,1 9,6 15,3 17,5 18,4 17,5 5 3 11 6 S 1016,4 32 0 0,1
08.07.2020 09:00:00 12,7 10,2 13,3 16,5 18,5 17,5 6 3 9 5 SSE 1016,8 11 0 0,0
08.07.2020 08:00:00 12,0 9,7 12,4 15,8 18,7 17,5 7 4 11 6 S 1016,9 25 0 0,0
08.07.2020 07:00:00 11,6 9,9 11,7 15,6 19,0 17,5 5 3 10 5 S 1016,8 25 0 0,1
08.07.2020 06:00:00 11,6 10,0 11,5 15,7 19,3 17,5 2 1 9 5 NW 1017,1 16 0 0,0
08.07.2020 05:00:00 11,9 9,3 11,9 15,9 19,7 17,5 6 3 11 6 WSW 1017,3 36 0 0,0
08.07.2020 04:00:00 12,0 9,3 11,9 16,2 20,0 17,5 9 5 18 10 NW 1017,5 40 0 0,0
08.07.2020 03:00:00 12,9 8,5 12,7 16,7 20,4 17,5 13 7 24 13 NNW 1018,0 36 0 0,0
08.07.2020 02:00:00 12,7 7,4 12,4 17,3 20,8 17,5 9 5 18 10 NNW 1017,3 44 0 0,0
08.07.2020 01:00:00 14,5 6,3 13,6 17,7 21,3 17,5 4 2 9 5 SW 1016,7 55 0 0,0
08.07.2020 00:00:00 14,6 5,9 13,7 18,2 21,7 17,5 4 2 9 5 SSW 1016,7 55 0 0,0
07.07.2020 23:00:00 14,9 6,0 14,0 19,0 22,2 17,5 7 4 10 5 SSW 1017,0 58 0 0,0
07.07.2020 22:00:00 15,1 6,0 13,9 19,9 22,7 17,5 5 3 9 5 S 1017,1 54 0 0,0
07.07.2020 21:00:00 16,5 4,9 14,2 21,6 23,1 17,5 7 4 18 10 WSW 1016,9 69 22 0,0
07.07.2020 20:00:00 17,8 5,0 17,7 23,9 23,2 17,5 6 3 22 12 SW 1016,9 65 34 0,0
07.07.2020 19:00:00 18,7 3,7 20,7 26,0 23,2 17,5 17 9 26 14 W 1017,2 43 39 0,0
07.07.2020 18:00:00 18,2 5,4 20,5 27,1 22,9 17,5 16 9 29 16 W 1017,5 70 31 0,0
07.07.2020 17:00:00 17,9 6,3 20,6 27,9 22,5 17,5 16 8 34 18 W 1018,1 55 32 0,0
07.07.2020 16:00:00 17,7 6,0 20,2 28,8 21,9 17,5 19 11 38 20 W 1018,6 45 33 0,0
07.07.2020 15:00:00 18,1 5,6 24,1 29,0 21,2 17,5 14 8 35 19 W 1018,7 28 36 0,0
07.07.2020 14:00:00 18,0 6,8 23,4 28,4 20,3 17,5 16 9 34 18 NW 1018,9 37 38 0,0
07.07.2020 13:00:00 17,3 7,4 25,0 27,7 19,4 17,5 15 8 36 19 W 1019,2 27 47 0,0
07.07.2020 12:00:00 15,9 7,9 24,2 24,7 18,8 17,5 16 9 31 17 WSW 1019,7 27 40 0,0
07.07.2020 11:00:00 14,0 7,6 17,0 20,9 18,5 17,5 19 10 29 16 NW 1020,2 31 11 0,0
07.07.2020 10:00:00 13,7 8,4 16,7 19,4 18,3 17,5 18 10 36 19 NW 1020,0 33 21 0,0
07.07.2020 09:00:00 13,1 8,5 15,5 17,4 18,2 17,5 19 10 34 18 NW 1019,8 30 15 0,0
07.07.2020 08:00:00 12,4 8,2 14,4 16,0 18,4 17,5 15 8 29 16 WNW 1019,8 36 10 0,0
07.07.2020 07:00:00 11,6 8,5 12,3 14,8 18,6 17,5 19 10 28 15 WNW 1019,9 40 0 0,0
07.07.2020 06:00:00 11,3 8,1 11,5 14,6 19,0 17,5 14 8 31 17 WNW 1019,8 54 0 0,0
07.07.2020 05:00:00 11,4 8,0 11,4 14,8 19,3 17,5 15 8 24 13 WNW 1019,6 62 0 0,0
07.07.2020 04:00:00 11,6 8,0 11,6 14,9 19,8 17,5 7 4 18 10 WSW 1019,5 58 0 0,0
07.07.2020 03:00:00 10,8 7,7 9,7 14,7 20,3 17,5 12 6 20 11 WNW 1019,4 52 0 0,0
07.07.2020 02:00:00 11,7 7,7 11,2 15,3 20,9 17,5 11 6 28 15 W 1018,8 56 0 0,0
07.07.2020 01:00:00 12,3 7,5 11,0 16,4 21,5 17,5 15 8 28 15 W 1018,3 55 0 0,0
07.07.2020 00:00:00 12,7 7,5 11,9 16,7 22,1 17,4 13 7 26 14 WSW 1017,8 58 0 0,0
06.07.2020 23:00:00 13,3 6,8 12,0 17,8 22,8 17,4 18 10 37 20 WNW 1016,9 64 0 0,0
06.07.2020 22:00:00 14,2 6,4 12,9 19,3 23,5 17,4 16 9 37 20 W 1016,2 59 5 0,0
06.07.2020 21:00:00 15,0 5,7 14,2 21,3 23,9 17,4 23 13 56 30 NW 1015,6 59 21 0,0
06.07.2020 20:00:00 17,4 6,4 17,0 24,0 24,2 17,4 19 10 49 26 NNW 1014,0 50 51 0,0
06.07.2020 19:00:00 19,6 5,0 20,7 26,4 24,2 17,4 27 14 50 27 WNW 1012,9 21 60 0,0
06.07.2020 18:00:00 20,0 3,9 21,6 27,9 24,0 17,4 27 14 46 25 WNW 1012,4 25 43 0,0
06.07.2020 17:00:00 19,1 4,5 20,1 29,0 23,6 17,4 27 14 46 25 WNW 1012,2 29 43 0,0
06.07.2020 16:00:00 20,1 5,0 23,0 30,1 23,0 17,4 23 12 43 23 WNW 1011,8 52 49 0,0
06.07.2020 15:00:00 21,3 7,4 25,4 29,2 22,3 17,4 26 14 46 25 WNW 1011,3 53 46 0,0
06.07.2020 14:00:00 20,3 6,7 24,2 28,6 21,5 17,4 29 16 50 27 NW 1011,0 26 46 0,0
06.07.2020 13:00:00 21,2 7,4 27,2 27,6 20,8 17,4 19 10 39 21 WNW 1010,4 30 56 0,0
06.07.2020 12:00:00 20,0 8,6 24,8 23,5 20,5 17,4 21 12 42 23 WSW 1010,4 42 45 0,0
06.07.2020 11:00:00 18,8 10,0 22,2 21,5 20,4 17,4 21 11 32 17 W 1010,4 30 23 0,0
06.07.2020 10:00:00 16,8 14,3 17,4 19,6 20,6 17,3 15 8 27 14 W 1011,0 46 2 0,0
06.07.2020 09:00:00 16,1 14,2 16,2 18,6 20,8 17,3 10 5 21 12 W 1010,8 56 0 0,9
06.07.2020 08:00:00 16,0 14,3 15,6 18,8 21,0 17,3 10 6 37 20 SW 1010,5 10 0 0,3
06.07.2020 07:00:00 19,9 13,7 19,6 19,8 21,2 17,3 13 7 24 13 W 1009,3 70 1 0,0
06.07.2020 06:00:00 19,9 14,1 19,2 19,5 21,4 17,3 11 6 22 12 WSW 1009,6 66 0 0,0
06.07.2020 05:00:00 19,9 14,5 18,8 19,5 21,7 17,3 7 4 16 9 S 1009,6 65 0 0,0
06.07.2020 04:00:00 21,1 14,1 19,0 20,1 22,0 17,3 8 5 19 10 SW 1009,6 70 0 0,0
06.07.2020 03:00:00 21,3 14,2 19,4 20,4 22,3 17,3 10 5 18 10 SW 1009,9 70 0 0,0
06.07.2020 02:00:00 21,8 14,4 20,6 20,9 22,6 17,3 10 6 16 8 SSW 1010,0 66 0 0,0
06.07.2020 01:00:00 21,3 14,4 20,3 20,8 23,0 17,3 11 6 17 9 SW 1010,3 64 0 0,0
06.07.2020 00:00:00 20,9 14,1 20,0 21,0 23,4 17,3 12 6 18 10 S 1010,9 56 0 0,0
05.07.2020 23:00:00 21,7 14,2 20,0 21,9 23,9 17,3 11 6 20 11 SSW 1011,1 70 0 0,0
05.07.2020 22:00:00 21,9 14,6 19,6 23,1 24,2 17,3 10 6 21 11 SW 1011,2 28 9 0,0
05.07.2020 21:00:00 22,9 14,8 21,5 24,9 24,4 17,3 14 7 30 16 W 1010,6 70 60 0,0
05.07.2020 20:00:00 24,4 15,0 24,7 27,0 24,3 17,3 21 11 32 17 W 1010,4 51 51 0,0
05.07.2020 19:00:00 25,7 15,1 27,4 28,7 24,1 17,3 14 8 31 17 W 1010,5 69 54 0,0
05.07.2020 18:00:00 25,8 14,9 27,8 29,5 23,7 17,2 21 11 35 19 WSW 1010,7 40 46 0,0
05.07.2020 17:00:00 25,5 15,2 27,9 28,4 23,4 17,2 19 10 40 21 WSW 1011,3 45 12 0,0
05.07.2020 16:00:00 25,3 14,8 27,6 28,1 23,0 17,2 18 10 37 20 WSW 1011,5 70 0 0,0
05.07.2020 15:00:00 25,5 14,9 28,3 28,6 22,5 17,2 23 12 39 21 W 1011,6 40 20 0,0
05.07.2020 14:00:00 25,6 15,6 30,0 26,6 22,1 17,2 16 9 31 17 W 1011,7 62 3 0,0
05.07.2020 13:00:00 24,1 15,4 25,7 26,1 21,7 17,2 15 8 29 16 SSW 1012,2 52 0 0,0
05.07.2020 12:00:00 23,0 14,9 24,9 26,4 21,2 17,2 16 8 25 13 SSW 1012,9 69 21 0,0
05.07.2020 11:00:00 21,9 14,1 23,5 23,7 20,8 17,2 16 9 26 14 S 1013,4 60 0 0,0
05.07.2020 10:00:00 21,7 14,0 24,0 23,7 20,5 17,2 9 5 19 10 SW 1013,5 70 7 0,0
05.07.2020 09:00:00 20,3 13,2 21,6 21,2 20,5 17,2 11 6 18 10 S 1013,5 55 0 0,0
05.07.2020 08:00:00 19,4 12,8 20,0 20,4 20,5 17,2 10 5 17 9 S 1013,9 64 13 0,0
05.07.2020 07:00:00 18,6 12,0 18,7 18,8 20,8 17,2 13 7 17 9 SSE 1014,1 70 0 0,0
05.07.2020 06:00:00 18,5 11,6 18,0 18,6 21,1 17,2 9 5 16 9 S 1014,2 59 0 0,0
05.07.2020 05:00:00 19,3 10,8 18,1 18,7 21,4 17,2 8 4 13 7 SSW 1014,1 61 0 0,0
05.07.2020 04:00:00 19,5 10,7 17,7 18,9 21,8 17,2 9 5 16 9 SW 1014,2 62 0 0,0
05.07.2020 03:00:00 20,2 10,5 18,1 19,8 22,2 17,2 9 5 19 10 WSW 1014,4 69 0 0,0
05.07.2020 02:00:00 20,5 10,4 19,2 20,4 22,5 17,2 8 4 14 8 SSW 1014,7 61 0 0,0
05.07.2020 01:00:00 20,5 10,4 19,5 20,9 23,0 17,2 7 4 18 10 SSW 1014,9 59 0 0,0
05.07.2020 00:00:00 21,1 10,2 20,0 21,3 23,4 17,2 8 4 14 8 SSW 1014,7 57 0 0,0
04.07.2020 23:00:00 20,9 10,5 19,4 22,0 23,9 17,2 9 5 12 6 SSW 1014,7 20 0 0,0
04.07.2020 22:00:00 21,6 10,2 19,6 22,9 24,4 17,2 8 5 19 10 SSW 1014,6 45 0 0,0
04.07.2020 21:00:00 22,5 9,8 21,1 24,8 24,7 17,2 12 6 29 15 W 1014,3 56 12 0,0
04.07.2020 20:00:00 23,5 9,8 22,5 27,2 24,8 17,2 11 6 25 13 W 1014,0 56 35 0,0
04.07.2020 19:00:00 25,3 9,4 26,7 29,9 24,6 17,2 14 8 26 14 W 1013,6 58 51 0,0
04.07.2020 18:00:00 25,9 10,0 28,0 30,6 24,2 17,2 13 7 22 12 WSW 1013,7 59 45 0,0
04.07.2020 17:00:00 24,9 10,2 26,6 32,0 23,6 17,2 20 11 32 18 SW 1014,0 65 48 0,0
04.07.2020 16:00:00 25,3 10,1 29,2 32,4 22,7 17,2 10 6 26 14 SW 1014,3 57 47 0,0
04.07.2020 15:00:00 25,3 10,2 29,6 32,0 21,8 17,2 15 8 29 16 SSW 1014,7 50 52 0,0
04.07.2020 14:00:00 25,0 9,4 30,1 30,1 21,0 17,2 16 9 30 16 W 1015,2 41 59 0,0
04.07.2020 13:00:00 23,6 10,2 28,1 27,0 20,1 17,2 15 8 31 17 SW 1016,2 60 33 0,0
04.07.2020 12:00:00 23,2 8,6 28,9 27,7 19,2 17,2 17 9 40 22 W 1016,7 36 59 0,0
04.07.2020 11:00:00 22,5 9,4 26,9 24,6 18,4 17,2 14 8 27 14 W 1016,7 35 59 0,0
04.07.2020 10:00:00 21,2 10,8 24,4 22,8 17,8 17,2 10 5 19 10 WSW 1017,3 36 60 0,0
04.07.2020 09:00:00 19,4 11,7 22,4 19,9 17,4 17,2 8 4 12 7 SSE 1017,8 27 60 0,0
04.07.2020 08:00:00 16,9 10,4 18,2 16,9 17,3 17,2 6 3 10 6 SE 1017,8 36 60 0,0
04.07.2020 07:00:00 15,0 10,9 15,5 14,0 17,6 17,2 5 3 8 5 E 1018,3 31 60 0,0
04.07.2020 06:00:00 13,2 10,2 11,7 13,1 17,9 17,2 6 3 11 6 E 1018,6 34 34 0,0
04.07.2020 05:00:00 12,2 9,8 10,2 13,3 18,3 17,2 5 3 13 7 E 1018,7 33 0 0,0
04.07.2020 04:00:00 12,5 10,1 11,1 13,8 18,7 17,2 5 3 11 6 E 1018,7 33 0 0,0
04.07.2020 03:00:00 12,4 10,1 11,4 14,2 19,2 17,2 3 2 7 4 NE 1019,1 28 0 0,0
04.07.2020 02:00:00 13,4 10,3 11,0 14,7 19,7 17,2 6 3 7 4 ESE 1018,9 32 0 0,0
04.07.2020 01:00:00 13,6 10,2 11,7 15,3 20,2 17,1 3 2 6 3 E 1018,9 36 0 0,0
04.07.2020 00:00:00 14,9 10,6 11,9 16,0 20,7 17,1 2 1 5 3 ESE 1018,6 34 0 0,0
03.07.2020 23:00:00 16,0 10,7 12,5 16,9 21,1 17,1 5 3 6 3 SSE 1018,4 36 0 0,0
03.07.2020 22:00:00 17,9 10,2 14,2 18,0 21,6 17,1 3 2 13 7 SW 1017,6 39 0 0,0

tt = Température de l'air
td = dewpoint
tt 5cm = Température de l'air 5cm
tt -5cm = Température de l'air -5cm
tt -20cm = Température de l'air -20cm
tt -100cm = Température de l'air -100cm
ff = Vitesse du vent
fx = gusts
dd = Direction du vent
ppp = reduced air pressure
vv = visibility
sd = Ensoleillement
rr = Quantités de précipitations

stations d'obs. à proximité